Regional Weather Roundup
Issued by NWS Pendleton, OR

Home | Current Version | Previous Version | Text Only | Print | Product List | Glossary On
Versions: 1 2 3 4 5 6 7 8 9 10 11 12 13 14 15 16 17 18 19 20 21 22 23 24 25 26 27 28 29 30 31 32 33 34 35 36 37 38 39 40 41 42 43 44 45 46 47 48 49 50
000
ASUS46 KPDT 301625
RWRPDT
PENDLETON REGIONAL WEATHER ROUNDUP
NATIONAL WEATHER SERVICE PENDLETON OREGON
900 AM PDT THU JUL 30 2015

NOTE: FAIR INDICATES FEW OR NO CLOUDS BELOW 12,000 FEET WITH NO
SIGNIFICANT WEATHER AND/OR OBSTRUCTIONS TO VISIBILITY.

# INDICATES UNOFFICIAL STATION AND DATA

WAZ520-301710-
EAST SLOPES OF WASHINGTON CASCADES

CITY            SKY/WX      TMP DP  RH  WIND    PRES   REMARKS
#BULLFROG 2SW   N/A         69  43  39  CALM    27.77F
#BUMPING DAM    N/A         55  N/A N/A NE6     N/A
#CLE ELUM HS    N/A         61  41  48  CALM    30.12S
#CLE ELUM LAKE  N/A         70  41  35  CALM    30.03S
#CLIFFDEL 2NW   N/A         55  36  49  CALM    N/A
#GLENWOOD       N/A         63  51  65  CALM    30.08F
#MANASTASH CYN  N/A         70  41  35  CALM    30.15S
#NELSON         N/A         61  47  60  CALM    30.10F
#NELSON 3SW     N/A         68  41  37  CALM    30.26S
#NILE           N/A         66  41  40  W2      29.38F
#RONALD 2NW     N/A         65  41  41  CALM    30.07S
#SNOWDEN        N/A         77  22  13  CALM    N/A
#TEANAWAY 4NE   N/A         63  45  52  NW2     N/A
#TROUT LAKE 1NE N/A         72  47  41  CALM    30.06S
$$

WAZ521-301710-
SIMCOE HIGHLANDS

CITY            SKY/WX      TMP DP  RH  WIND    PRES   REMARKS
#BICKLETON HS   N/A         80  28  15  E3      N/A
#CENTERVILLE 4W N/A         74  44  34  CALM    29.89S
#GOLDENDALE     N/A         68  38  33  CALM    N/A
#GOLDENDALE 1NE N/A         72  31  22  CALM    N/A
#GOLDENDALE 5WNWN/A         76  43  31  CALM    30.03S
#GOODNOE HILLS  N/A         84  43  24  SE5     N/A
#LYLE 6NE       N/A         71  43  36  NE1     30.01S
$$

WAZ026-301710-
KITTITAS VALLEY

CITY            SKY/WX      TMP DP  RH  WIND    PRES   REMARKS
ELLENSBURG AP   SUNNY       72  44  37  E3      30.17S
YTC-OPS AREA    N/A         80  33  18  NE5     30.19S
#ELLENSBURG CWU N/A         67  46  47  CALM    30.04S
#ELLENSBURG 3NE N/A         67  47  49  CALM    30.16S
#ELLENSBURG 1E  N/A         64  47  54  CALM    N/A
#KITTITAS 3S    N/A         62  51  67  CALM    30.09S
#THORP 6N       N/A         68  39  35  N3      30.08S
$$

WAZ027-301710-
YAKIMA VALLEY

CITY            SKY/WX      TMP DP  RH  WIND    PRES   REMARKS
SUNNYSIDE AP    SUNNY       71  50  47  CALM    30.11S
YAKIMA AIRPORT  SUNNY       76  48  37  W7      30.13S
#DONALD 2NE     N/A         88  21   9  CALM    28.96S
#GRANDVIEW      N/A         75  44  33  CALM    30.09R
#MABTON         N/A         71  53  53  CALM    30.11R
#MOXEE 2E       N/A         72  18  13  CALM    30.00F
#NACHES 2SW     N/A         74  48  40  NW1     30.16R
#OUTLOOK DOT    N/A         N/A N/A N/A SW1     N/A
#SELAH 8E       N/A         82  37  20  N2      N/A
#TERRACE HTS    N/A         68  49  51  CALM    30.04R
#TOPPENISH      N/A         73  50  44  CALM    29.99S
#WAPATO 4NE     N/A         88  21   9  CALM    28.96S
#WEST VALLEY    N/A         74  48  40  N1      30.05F
#WHITE SWAN 5E  N/A         75  52  45  SE1     30.06F
#WILEY CITY 3W  N/A         77  40  26  CALM    30.11S
$$

WAZ028-301710-
LOWER COLUMBIA BASIN...WASHINGTON

CITY            SKY/WX      TMP DP  RH  WIND    PRES   REMARKS
HANFORD         SUNNY       78  38  24  N2      30.10R
PASCO           SUNNY       73  45  37  CALM    30.11S
RICHLAND AWOS   SUNNY       75  46  36  CALM    30.11R
#BASIN CITY 5SW N/A         70  53  55  E1      30.11R
#BENTON CITY    N/A         75  46  36  W1      29.98S
#CONNELL 5N     N/A         80  37  21  CALM    30.07R
#CONNELL 5NW    N/A         77  45  32  CALM    30.03S
#ELTOPIA 6NW    N/A         75  50  41  NE6     29.08S
#KAHLOTUS       N/A         72  35  26  SE6     30.06S
#KENNEWICK      N/A         69  43  39  CALM    27.77F
#KENNEWICK 3S   N/A         71  50  47  CALM    30.07S
#PATERSON       N/A         68  48  49  CALM    30.06S
#PROSSER        N/A         73  44  35  SW1     30.06S
#SAGEMOOR 2W    N/A         75  57  54  CALM    29.92S
#TOUCHET 2S     N/A         70  45  41  CALM    30.06S
#WEST PASCO     N/A         77  53  43  CALM    30.09R
$$

WAZ029-301710-
FOOTHILLS OF THE BLUES...WASHINGTON

CITY            SKY/WX      TMP DP  RH  WIND    PRES   REMARKS
WALLA WALLA AP  SUNNY       81  38  21  W6      30.11S
#DAYTON SCHOOL  N/A         82  38  21  NW1     30.11F
#LOWDEN 2SE     N/A         71  45  39  CALM    30.06S
#PLEASANT VIEW 1N/A         76  35  22  CALM    30.08S
#PRESCOTT       N/A         81  44  27  CALM    30.05S
#SUDBURY        N/A         77  N/A N/A CALM    N/A
#WHITMAN COLLEGEN/A         76  42  30  W3      30.10R
#WAITSBURG 8N   N/A         90  30  12  E5      29.94F HX 86
#WALLA WALLA U  N/A         74  47  38  CALM    30.05S
#WHITMAN MISSIONN/A         70  49  47  CALM    30.08R
$$

WAZ030-301710-
BLUE MOUNTAINS...WASHINGTON

CITY            SKY/WX      TMP DP  RH  WIND    PRES   REMARKS
$$

ORZ009-041-WAZ024-301710-
COLUMBIA RIVER GORGE

CITY            SKY/WX      TMP DP  RH  WIND    PRES   REMARKS
HOOD RIVER AP   SUNNY       72  46  39  CALM    30.10F
THE DALLES AP   SUNNY       72  41  33  CALM    30.09S
#ARLINGTON AIRPON/A         76  40  27  W1      N/A
#MOSIER 1S      N/A         68  32  26  CALM    30.11S
#MURDOCK        N/A         72  48  43  SW2     30.09S

$$

ORZ510-301710-
NORTH CENTRAL OREGON

CITY            SKY/WX      TMP DP  RH  WIND    PRES   REMARKS
#CHENOWITH 1W   N/A         84  40  21  S1      N/A
#DUFUR 9E       N/A         77  35  22  N2      30.06R
#GRASS VALLEY 1SN/A         78  41  27  CALM    30.06R
#MAUPIN SCHOOL  N/A         71  40  32  CALM    30.13F
#MORO SCHOOL    N/A         80  43  27  CALM    30.14S
#SHANIKO 4NW    N/A         79  33  19  SE8     30.23R
#TYGH VALLEY 2NEN/A         70  43  38  CALM    30.06S
#WAPANITIA AIRPON/A         76  37  24  CALM    30.06S
#WASCO AIRPORT  N/A         79  32  18  W1      N/A
#WASCO 5NE      N/A         81  42  25  CALM    30.05S
$$

ORZ511-301710-
CENTRAL OREGON

CITY            SKY/WX      TMP DP  RH  WIND    PRES   REMARKS
BEND AIRPORT    SUNNY       75  34  22  CALM    30.22F
MADRAS AIRPORT  SUNNY       72  36  27  SE3     30.20S
PRINEVILLE AP   SUNNY       77  32  19  E3      30.21F
REDMOND AIRPORT SUNNY       75  32  21  S5      30.21S
#BEND 1SW       N/A         70  38  31  CALM    N/A
#BEND-AWBREY    N/A         71  39  31  CALM    30.03S
#BEND-KIM LN    N/A         67  43  42  SW2     30.21S
#CULVER         N/A         71  44  38  CALM    30.15S
#LAKE BILLY CHINN/A         70  -4   5  NW2     30.19F
#POWELL BUTTE 3EN/A         70  36  29  E5      N/A
#POWELL BUTTE   N/A         84  45  26  N3      29.83S
#PRINEVILLE 3N  N/A         69  47  45  N2      30.03F
#WARM SPRINGS   N/A         71  39  31  CALM    30.12F

$$


ORZ509-301710-
EAST SLOPES OF OREGON CASCADES

CITY            SKY/WX      TMP DP  RH  WIND    PRES   REMARKS
#CAMP SHERMAN   N/A         57  38  49  CALM    30.14S
#LA PINE 4NW    N/A         62  42  48  CALM    30.12F
#SISTERS AIRPOR N/A         73  45  37  CALM    30.17S
#SISTERS 1NW    N/A         69  35  28  W3      N/A
#SISTERS 3N     N/A         69  45  42  E2      30.34S
#SUNRIVER       N/A         64  41  43  S2      29.96F
#TUMALO 3W      N/A         76  37  24  CALM    29.91S
#WANOGA BUTTE D N/A         73  24  16  W1      N/A

$$

ORZ044-301710-
LOWER COLUMBIA BASIN...OREGON

CITY            SKY/WX      TMP DP  RH  WIND    PRES   REMARKS
HERMISTON       SUNNY       74  43  33  VRB3    30.10S
#BOARDMAN SCHOOLN/A         70  53  55  CALM    30.10S
#BOARDMAN 8SW   N/A         74  48  40  NW2     30.06S
#ECHO 8SW       N/A         74  42  32  CALM    30.11S
#IONE SCHOOL    N/A         80  40  24  CALM    30.07S
#IRRIGON 4NW    N/A         71  50  47  E2      N/A
#UMATILLA       N/A         74  47  38  CALM    30.01S
$$

ORZ507-301710-
NORTHERN FOOTHILLS OF THE BLUES

CITY            SKY/WX      TMP DP  RH  WIND    PRES   REMARKS
PENDLETON AIRPT SUNNY       77  37  24  S3      30.12S
#ADAMS 3WNW     N/A         81  40  23  CALM    30.05F
#ATHENA         N/A         85  39  20  CALM    30.08S
#CAYUSE         N/A         78  43  29  CALM    30.04S
#HELIX SCHOOL   N/A         78  39  25  CALM    30.06R
#HELIX 3N       N/A         81  36  20  S1      30.10S
#HOLDMAN 5SE    N/A         83  40  22  CALM    30.12R
#HOLDMAN 6E     N/A         84  40  21  CALM    29.88R
#M-F GROVE ELEM N/A         78  42  28  CALM    30.09S
#M-FREEWATER 5SEN/A         80  51  36  CALM    30.10S
#PENDLETON DNTN N/A         70  42  36  CALM    30.08S
#PDT AQUATIC CTRN/A         69  42  37  CALM    30.09S
#PDT SUNRIDGE   N/A         75  43  32  CALM    30.12F
#PENDLETON 7NW  N/A         82  50  33  CALM    N/A
#PILOT ROCK     N/A         80  43  27  CALM    30.15R
#TUTUILLA       N/A         77  42  29  CALM    30.09S
#UMAPINE 2E     N/A         71  50  47  SW1     30.07S
#WESTON SCHOOL  N/A         81  35  19  CALM    30.02R

$$

ORZ508-301710-
SOUTHERN FOOTHILLS OF THE BLUES

CITY            SKY/WX      TMP DP  RH  WIND    PRES   REMARKS
#CONDON SCHOOL  N/A         80  38  22  CALM    30.14R
#CONDON 5W      N/A         79  32  18  E2      30.18R
#FOSSIL SCHOOL  N/A         78  39  25  CALM    30.11F
#HEPPNER EOC    N/A         82  38  21  CALM    29.97F
#HEPPNER 4NE    N/A         81  37  21  CALM    30.03S
#LEXINGTON 2SE  N/A         83  42  24  CALM    30.09S
#OLEX 4N        N/A         77  36  23  CALM    30.09S
#RUGGS 5NE      N/A         85  29  13  N3      30.36R
#RUGGS 2SW      N/A         83  36  19  CALM    30.04F

$$

ORZ502-503-301710-
BLUE MOUNTAINS

CITY            SKY/WX      TMP DP  RH  WIND    PRES   REMARKS
MEACHAM         SUNNY       77  43  30  CALM    30.26R
#HEPPNER 15SE   N/A         78  36  22  CALM    30.18R
#LONG CREEK HS  N/A         70  42  36  CALM    30.22R
#PIKES PEAK     N/A         79  36  21  SE1     27.99S
#TOLLGATE       N/A         71  38  30  NE3     30.16R
#TROY SCHOOL    N/A         73  44  35  CALM    29.97F
#UKIAH          N/A         59  42  53  CALM    30.19F
#WESTON 4E      N/A         82  38  21  E3      29.98S
$$

ORZ505-301710-
JOHN DAY BASIN

CITY            SKY/WX      TMP DP  RH  WIND    PRES   REMARKS
JOHN DAY        SUNNY       76  37  24  E6      30.26F
#JOHN DAY KJDY  N/A         73  47  40  CALM    30.27F
#DAYVILLE SCHOOLN/A         69  35  28  CALM    30.18F
#MITCHELL       N/A         78  47  34  CALM    30.33F
#MONUMENT HS    N/A         69  39  33  CALM    30.20S
#MT. VERNON 5SE N/A         73  37  27  CALM    30.23S
#WINLOCK        N/A         79  38  23  N2      30.29S
$$

ORZ506-301710-
OCHOCO AND JOHN DAY HIGHLANDS

CITY            SKY/WX      TMP DP  RH  WIND    PRES   REMARKS
#PAULINA SCHOOL N/A         67  38  34  CALM    30.22R
#PINE MTN OBS   N/A         70  25  18  SE12    N/A
#PRAIRIE CITY   N/A         73  47  40  CALM    30.11F
#SENECA         N/A         56  N/A N/A CALM    N/A
#SENECA 9NW     N/A         59  41  51  CALM    30.14S
$$

ORZ049-301710-
GRANDE RONDE VALLEY

CITY            SKY/WX      TMP DP  RH  WIND    PRES   REMARKS
LA GRANDE       SUNNY       70  37  30  N3      30.24F
#COVE           N/A         67  48  50  NE2     30.26R
#COVE SCHOOL    N/A         69  45  42  CALM    30.26R
#COVE 6NW       N/A         65  44  46  CALM    30.18S
#ELGIN 3N       N/A         69  42  37  CALM    30.20F
#ELGIN 1E       N/A         62  42  48  CALM    N/A
#ISLAND CITY 4N N/A         73  53  49  CALM    30.02S
#LA GRANDE ELEM N/A         71  42  35  CALM    30.24S
#UNION 1S       N/A         66  47  50  CALM    30.04S
$$

ORZ050-301710-
WALLOWA COUNTY

CITY            SKY/WX      TMP DP  RH  WIND    PRES   REMARKS
JOSEPH AIRPORT  SUNNY       75  39  27  CALM    30.30S
#ENTERPRISE HS  N/A         70  46  42  CALM    30.26
#IMNAHA SCHOOL  N/A         72  39  30  S3      30.19F
#IMNAHA 10S     N/A         76  41  28  CALM    30.21F
#JOSEPH 3N      N/A         66  42  42  CALM    30.27S
#JOSEPH 3W      N/A         78  36  22  E2      30.13R
#LOSTINE        N/A         67  46  47  CALM    29.93F
#MT HOWARD 8000 N/A         64  28  25  CALM    30.56R
#PROMISE 1S     N/A         72  43  35  CALM    30.17R
#WALLOWA SCHOOL N/A         63  42  46  CALM    30.20F



$$



USA.gov is the U.S. government's official web portal to all federal, state and local government web resources and services.